"TOA5","AWS1","CR1000","7964","CR1000.Std.14","CPU:AWS1_114.CR1","64363","TBL110"
"TIMESTAMP","RECORD","Wind_spd_WVc(1)","Wind_spd_WVc(2)","Air_Temp_Avg","Humidity_Avg","SW_upper_Wm2_Avg","Rain_Tot","Press_Avg","Issui_Tot","Depth_cm","SR50A_Raw","Quality","Ground_Temp_Avg(1)","Ground_Temp_Avg(2)","SW_lower_Wm2_Avg","Albedo_Avg","SWC_per(1)","SWC_per(2)","Period(1)","Period(2)"
"TS","RN","","","","","","","","","","","","","","","","","","",""
"","","WVc","WVc","Avg","Avg","Avg","Tot","Avg","Tot","Smp","Smp","Smp","Avg","Avg","Avg","Avg","Smp","Smp","Smp","Smp"
"2016-10-15 00:00:00",257533,0.578,188.4,4.005,72.12,0,0,874.6953,0,-2.318,3.18,193,12.57,14.37,0,0,49.08,55.89,33.07,34.72
"2016-10-15 00:10:00",257534,0.528,187.2,4.139,71.98,0,0,874.8877,0,-2.366,3.179,198,12.59,14.37,0.2200679,0,49.08,55.95,33.07,34.74
"2016-10-15 00:20:00",257535,0.497,186.2,4.244,72.45,0,0,874.925,0,-2.643,3.181,197,12.55,14.37,0.2692412,0,49.08,55.95,33.07,34.74
"2016-10-15 00:30:00",257536,0.591,184.4,4.207,73.2,0,0,874.8976,0,-2.317,3.179,193,12.53,14.33,0.174438,0,49.08,55.95,33.07,34.74
"2016-10-15 00:40:00",257537,0.53,184.8,4.398,71.7,0,0,874.925,0,-2.165,3.176,192,12.47,14.3,0.348876,0,49.08,55.95,33.07,34.74
"2016-10-15 00:50:00",257538,0.633,185.3,4.452,70.98,0,0,874.925,0,-2.265,3.177,195,12.47,14.28,0.1971908,0,49.08,55.95,33.07,34.74
"2016-10-15 01:00:00",257539,0.601,190.9,4.425,69.98,0,0,874.925,0,-2.316,3.178,192,12.44,14.23,0.1365167,0,49.08,55.95,33.07,34.74
"2016-10-15 01:10:00",257540,0.56,188.6,4.402,70.11,0,0,874.9208,0,-2.216,3.177,197,12.46,14.21,0.1023875,0,49.08,55.89,33.07,34.72
"2016-10-15 01:20:00",257541,0.239,156.2,4.349,70.06,0,0,874.925,0,-0.424,3.158,196,12.38,14.21,0.02654491,0,49.08,55.95,33.07,34.74
"2016-10-15 01:30:00",257542,0.292,164.4,4.149,73.9,0,0,874.925,0,-2.419,3.182,196,12.39,14.23,0.117556,0,49.08,55.95,33.07,34.74
"2016-10-15 01:40:00",257543,0.354,177.6,3.964,73.17,0,0,874.925,0,-1.914,3.175,196,12.46,14.25,0.1592695,0,49.08,55.95,33.07,34.74
"2016-10-15 01:50:00",257544,0.538,182,4.367,68.98,0,0,874.925,0,-2.465,3.178,196,12.39,14.25,0.5271061,0,49.08,55.95,33.07,34.74
"2016-10-15 02:00:00",257545,0.467,186.1,4.634,66.48,0,0,875.1105,0,-2.113,3.174,194,12.32,14.26,0.4853927,0,49.08,55.95,33.07,34.74
"2016-10-15 02:10:00",257546,0.532,186.5,4.648,65.76,0,0,875.0704,0,-2.164,3.175,191,12.29,14.22,0.2882019,0,49.08,55.89,33.07,34.72
"2016-10-15 02:20:00",257547,0.587,183,4.459,66.82,0,0,875.0367,0,-2.265,3.177,186,12.32,14.2,0.03033704,0,49.08,55.89,33.07,34.72
"2016-10-15 02:30:00",257548,0.587,191.7,4.357,67.51,0,0,875.1442,0,-1.912,3.173,195,12.33,14.2,0.07963474,0,49.08,55.95,33.07,34.74
"2016-10-15 02:40:00",257549,0.512,190.3,4.441,67.43,0,0,875.1779,0,-2.115,3.176,194,12.27,14.2,0.0758426,0,49.08,55.95,33.07,34.74
"2016-10-15 02:50:00",257550,0.475,189.2,4.456,67.04,0,0,875.1779,0,-2.014,3.175,194,12.22,14.18,0.09480325,0,49.08,55.89,33.07,34.72
"2016-10-15 03:00:00",257551,0.569,187.1,4.255,67.41,0,0,875.1779,0,-2.014,3.175,190,12.25,14.13,0.007584261,0,49.08,55.95,33.07,34.74
"2016-10-15 03:10:00",257552,0.566,185,4.398,66.24,0,0,875.197,0,-2.216,3.177,202,12.28,14.12,0.1706459,0,49.08,55.95,33.07,34.74
"2016-10-15 03:20:00",257553,0.548,184.8,4.287,67.16,0,0,875.197,0,-2.039,3.175,190,12.25,14.12,0,0,49.08,55.89,33.07,34.72
"2016-10-15 03:30:00",257554,0.304,184.7,4.555,64.43,0,0,875.2201,0,-1.912,3.173,190,12.16,14.15,0.2275278,0,49.08,55.89,33.07,34.72
"2016-10-15 03:40:00",257555,0.554,184.8,4.397,66.53,0,0,875.3444,0,-2.014,3.175,190,12.12,14.2,0.05688196,0,49.08,55.95,33.07,34.74
"2016-10-15 03:50:00",257556,0.575,189.4,4.508,65.96,0,0,875.3002,0,-2.087,3.174,193,12.12,14.2,0.1896065,0,49.08,55.89,33.07,34.72
"2016-10-15 04:00:00",257557,0.526,185.3,4.603,65.46,0,0,875.2369,0,-2.062,3.174,195,12.1,14.2,0.2313199,0,49.13,55.89,33.08,34.72
"2016-10-15 04:10:00",257558,0.389,185.8,4.77,63.5,0,0,875.1779,0,-2.061,3.172,190,12.12,14.19,0.3716288,0,49.08,55.89,33.07,34.72
"2016-10-15 04:20:00",257559,0.35,186.1,4.837,63.92,0,0,875.2222,0,-2.012,3.173,190,12.07,14.19,0.2123593,0,49.08,55.95,33.07,34.74
"2016-10-15 04:30:00",257560,0.613,186.6,4.692,64.49,0,0,875.2117,0,-2.012,3.173,190,12.03,14.17,0.1516852,0,49.08,55.89,33.07,34.72
"2016-10-15 04:40:00",257561,0.298,188.9,4.897,62.88,0,0,875.2348,0,-2.059,3.171,189,12.08,14.1,0.2540727,0,49.08,55.89,33.07,34.72
"2016-10-15 04:50:00",257562,0.351,183.5,4.99,62.33,0,0,875.1927,0,-2.112,3.173,191,12.05,14.04,0.2806177,0,49.08,55.89,33.07,34.72
"2016-10-15 05:00:00",257563,0.216,183.7,5.101,61.81,0,0,875.1779,0,-2.283,3.171,194,12.03,14.04,0.4057579,0,49.08,55.89,33.07,34.72
"2016-10-15 05:10:00",257564,0.023,183.4,5.406,59.48,0,0,875.2391,0,-1.853,3.167,194,11.97,14.07,0.4702242,0,49.08,55.89,33.07,34.72
"2016-10-15 05:20:00",257565,0.043,183.6,5.742,57.4,0,0,875.4287,0,-2.561,3.174,193,11.97,14.1,0.8911506,0,49.08,55.89,33.07,34.72
"2016-10-15 05:30:00",257566,0.433,183.2,4.661,66.37,0,0,875.4308,0,-2.014,3.175,194,12,14.11,0.01137639,0,49.08,55.89,33.07,34.72
"2016-10-15 05:40:00",257567,0.447,21.09,6.808,53.7,0.1848495,0,875.5678,0,-2.226,3.156,194,12.03,14.11,2.650699,3.221,49.13,55.89,33.08,34.72
"2016-10-15 05:50:00",257568,0.381,18.07,7.906,50.83,0,0,875.6732,0,-3.303,3.172,194,12.02,14.1,1.782301,0,49.08,55.89,33.07,34.72
"2016-10-15 06:00:00",257569,0,0,6.069,61.96,0,0,875.6837,0,-2.489,3.176,190,11.95,14.11,0,0,49.08,55.89,33.07,34.72
"2016-10-15 06:10:00",257570,0.153,165.4,4.745,68.3,0.5545486,0,875.6837,0,-2.113,3.174,185,11.87,14.05,0,0,49.13,55.89,33.08,34.72
"2016-10-15 06:20:00",257571,0.374,176.7,4.665,69.47,4.349864,0,875.6837,0,-1.912,3.173,195,11.88,14.01,0.08342686,0.014,49.08,55.89,33.07,34.72
"2016-10-15 06:30:00",257572,0.493,187.1,4.547,70.14,8.302497,0,875.6837,0,-1.962,3.173,190,11.9,13.94,0.7318811,0.087,49.13,55.89,33.08,34.72
"2016-10-15 06:40:00",257573,0.402,189.2,4.753,68.91,14.32781,0,875.6837,0,-1.886,3.172,190,11.86,13.95,2.229773,0.145,49.08,55.89,33.07,34.72
"2016-10-15 06:50:00",257574,0.362,188.1,4.72,70.35,36.02206,0,875.6837,0,-1.833,3.17,189,11.85,13.97,6.067408,0.188,49.08,55.89,33.07,34.72
"2016-10-15 07:00:00",257575,0.255,175.5,5.181,69.32,37.28061,0,875.6774,0,-1.753,3.166,186,11.83,13.97,8.194794,0.225,49.08,55.89,33.07,34.72
"2016-10-15 07:10:00",257576,0.395,181.2,5.731,70.43,36.80865,0,875.6837,0,-1.95,3.165,195,11.78,13.96,8.858417,0.245,49.13,55.89,33.08,34.72
"2016-10-15 07:20:00",257577,0.164,179.8,6.229,66.77,72.9369,0,875.6837,0,-1.944,3.162,196,11.77,13.95,10.82274,0.175,49.08,55.89,33.07,34.72
"2016-10-15 07:30:00",257578,0.051,162.6,6.683,69.07,87.28831,0,875.8229,0,-1.535,3.156,188,11.77,13.94,11.69872,0.169,49.13,55.89,33.08,34.72
"2016-10-15 07:40:00",257579,0.108,143.2,7.179,69.95,37.33961,0,875.9309,0,-1.727,3.154,196,11.77,13.94,15.60841,0.418,49.08,55.89,33.07,34.72
"2016-10-15 07:50:00",257580,0,0,8.21,59.01,41.08772,0,876.0628,0,-1.962,3.15,185,11.77,13.94,16.12793,0.393,49.08,55.89,33.07,34.72
"2016-10-15 08:00:00",257581,0.008,288.2,8.8,51.58,49.05199,0,876.1113,0,-2.159,3.15,186,11.77,13.94,17.47413,0.362,49.08,55.89,33.07,34.72
"2016-10-15 08:10:00",257582,0.131,308.8,9.09,49.88,45.92403,0,876.1025,0,-2.097,3.149,186,11.76,13.93,17.28785,0.377,49.08,55.89,33.07,34.72
"2016-10-15 08:20:00",257583,0.349,314.5,9.15,49.46,58.66087,0,876.0967,0,-1.72,3.145,190,11.74,13.91,17.78298,0.335,49.08,55.89,33.07,34.72
"2016-10-15 08:30:00",257584,0.187,321.5,9.25,50.15,46.56298,0,876.0995,0,-1.804,3.145,193,11.7,13.87,18.15993,0.39,49.08,55.89,33.07,34.72
"2016-10-15 08:40:00",257585,0.45,302.9,9.2,51.98,86.03874,0,876.215,0,-1.725,3.145,194,11.68,13.85,17.3058,0.25,49.08,55.89,33.07,34.72
"2016-10-15 08:50:00",257586,0.731,317.8,9.49,51.49,48.63086,0,876.2697,0,-1.536,3.141,196,11.66,13.83,17.39635,0.358,49.08,55.89,33.07,34.72
"2016-10-15 09:00:00",257587,0.501,325.9,9.55,52.82,49.40894,0,876.2971,0,-1.813,3.143,194,11.67,13.84,17.41138,0.353,49.13,55.83,33.08,34.71
"2016-10-15 09:10:00",257588,0.611,335.3,9.72,55.17,70.88339,0,876.3434,0,-2.445,3.148,204,11.68,13.85,17.88898,0.283,49.08,55.89,33.07,34.72
"2016-10-15 09:20:00",257589,0.573,11.44,10.13,55.45,51.57512,0,876.3438,0,-1.622,3.138,194,11.67,13.85,18.94282,0.367,49.13,55.89,33.08,34.72
"2016-10-15 09:30:00",257590,0.59,351.5,10.29,56.9,52.04691,0,876.3443,0,-1.161,3.133,190,11.65,13.85,19.01485,0.365,49.08,55.89,33.07,34.72
"2016-10-15 09:40:00",257591,0.467,0.402,10.41,56.63,54.50417,0,876.4918,0,-1.235,3.133,181,11.62,13.85,19.83367,0.364,49.08,55.89,33.07,34.72
"2016-10-15 09:50:00",257592,0.509,346.4,10.6,56.33,171.1989,0,876.3564,0,-1.357,3.133,195,11.6,13.85,21.49405,0.19,49.08,55.89,33.07,34.72
"2016-10-15 10:00:00",257593,0.51,1.419,10.86,55.42,55.58144,0,876.3445,0,-1.43,3.133,192,11.59,13.84,22.93078,0.413,49.08,55.89,33.07,34.72
"2016-10-15 10:10:00",257594,0.502,318.5,10.92,56.36,55.18435,0,876.4631,0,-0.454,3.122,196,11.59,13.81,25.17875,0.456,49.08,55.89,33.07,34.72
"2016-10-15 10:20:00",257595,0.5,320.2,11.11,55.89,56.80025,0,876.4997,0,-2.873,3.145,209,11.61,13.76,27.30541,0.481,49.08,55.89,33.07,34.72
"2016-10-15 10:30:00",257596,0.473,335.2,11.24,56.38,75.09978,0,876.5057,0,-0.922,3.125,195,11.72,13.69,29.55644,0.422,49.13,55.89,33.08,34.72
"2016-10-15 10:40:00",257597,0.507,7.517,11.39,57.23,83.24401,0,876.5056,0,-1.055,3.125,197,11.72,13.65,30.9186,0.399,49.08,55.89,33.07,34.72
"2016-10-15 10:50:00",257598,0.544,5.079,11.67,54.68,60.57288,0,876.4993,0,-1.019,3.124,197,11.68,13.63,35.05969,0.579,49.08,55.89,33.07,34.72
"2016-10-15 11:00:00",257599,0.409,6.576,11.96,54.58,68.47839,0,876.4529,0,-0.848,3.121,192,11.62,13.62,41.86848,0.613,49.08,55.89,33.07,34.72
"2016-10-15 11:10:00",257600,0.423,335.7,11.92,54.4,68.12775,0,876.3097,0,-1.507,3.128,196,11.6,13.6,50.74129,0.754,49.13,55.89,33.08,34.72
"2016-10-15 11:20:00",257601,0.415,314,11.92,53.67,95.46096,0,876.2928,0,-1.065,3.123,195,11.6,13.59,67.33788,0.749,49.08,55.83,33.07,34.71
"2016-10-15 11:30:00",257602,0.447,269.9,12.38,50.18,526.4965,0,876.2507,0,-1.433,3.124,183,11.63,13.58,99.15412,0.257,49.08,55.83,33.07,34.71
"2016-10-15 11:40:00",257603,0.429,304.9,12.49,50.99,826.9418,0,876.2444,0,-1.126,3.121,192,11.66,13.58,111.0604,0.134,49.08,55.89,33.07,34.72
"2016-10-15 11:50:00",257604,0.539,330.5,12.74,48.75,830.5682,0,876.1602,0,-1.806,3.126,188,11.65,13.57,120.8941,0.146,49.13,55.83,33.08,34.71
"2016-10-15 12:00:00",257605,0.345,311.5,12.88,45.92,826.5905,0,876.0051,0,-1.363,3.12,193,11.64,13.56,128.4845,0.155,49.08,55.83,33.07,34.71
"2016-10-15 12:10:00",257606,0.297,305,13.05,47.23,819.826,0,875.9742,0,-1.803,3.123,188,11.71,13.54,132.9258,0.162,49.08,55.83,33.07,34.71
"2016-10-15 12:20:00",257607,0.322,281.4,13.43,47.05,811.973,0,875.7532,0,-1.942,3.125,195,11.68,13.51,133.9845,0.165,49.08,55.83,33.07,34.71
"2016-10-15 12:30:00",257608,0.286,324.7,13.57,46.92,802.6387,0,875.5951,0,-1.936,3.122,193,11.65,13.43,132.6293,0.165,49.13,55.83,33.08,34.71
"2016-10-15 12:40:00",257609,0.44,313.3,13.46,45.76,791.1474,0,875.5682,0,-1.605,3.12,198,11.61,13.4,131.4467,0.166,49.08,55.83,33.07,34.71
"2016-10-15 12:50:00",257610,0.29,307.7,13.45,45.4,777.064,0,875.4005,0,-0.881,3.112,203,11.6,13.45,128.4365,0.165,49.08,55.83,33.07,34.71
"2016-10-15 13:00:00",257611,0.301,328.6,13.55,46.47,761.1437,0,875.4001,0,-1.548,3.119,193,11.56,13.45,122.6726,0.161,49.03,55.83,33.05,34.71
"2016-10-15 13:10:00",257612,0.341,354.7,13.86,46.46,741.1867,0,875.3052,0,-1.65,3.12,195,11.62,13.39,112.4585,0.152,49.08,55.83,33.07,34.71
"2016-10-15 13:20:00",257613,0.249,301.3,13.57,48.47,722.2175,0,875.1979,0,-1.855,3.122,194,11.6,13.38,97.98347,0.136,49.03,55.83,33.05,34.71
"2016-10-15 13:30:00",257614,0.39,79.59,13.62,46.97,700.1656,0,875.1557,0,-0.889,3.113,204,11.62,13.45,78.69931,0.112,49.03,55.77,33.05,34.7
"2016-10-15 13:40:00",257615,0.286,279.9,13.66,46.3,677.4414,0,875.1726,0,-1.449,3.118,188,11.63,13.44,56.06785,0.083,49.08,55.83,33.07,34.71
"2016-10-15 13:50:00",257616,0.188,323.1,13.44,45.92,301.6444,0,875.2156,0,-1.387,3.119,197,11.64,13.4,19.64669,0.103,49.03,55.83,33.05,34.71
"2016-10-15 14:00:00",257617,0.172,242.8,13.19,49.02,38.35458,0,875.3764,0,-0.602,3.111,191,11.68,13.39,8.79724,0.228,49.03,55.83,33.05,34.71
"2016-10-15 14:10:00",257618,0.161,244.1,13.18,47.98,38.0748,0,875.2761,0,-0.68,3.113,192,11.77,13.4,5.156784,0.135,48.97,55.83,33.04,34.71
"2016-10-15 14:20:00",257619,0.155,219.4,12.96,50.55,37.57896,0,875.3981,0,-1.002,3.117,201,11.79,13.41,4.209912,0.112,49.03,55.83,33.05,34.71
"2016-10-15 14:30:00",257620,0.193,195.8,12.81,51.29,36.4447,0,875.2405,0,-1.444,3.122,198,11.87,13.41,3.982718,0.109,49.03,55.83,33.05,34.71
"2016-10-15 14:40:00",257621,0.344,279.5,12.97,46.76,36.08761,0,875.2357,0,-1.313,3.12,204,11.89,13.45,4.539839,0.126,49.03,55.77,33.05,34.7
"2016-10-15 14:50:00",257622,0.386,294.4,12.93,45.59,34.98339,0,875.1676,0,-2.849,3.135,189,11.9,13.44,4.267015,0.122,49.03,55.77,33.05,34.7
"2016-10-15 15:00:00",257623,0.323,6.911,13.15,46.17,33.54889,0,875.2416,0,-1.512,3.121,194,11.95,13.44,4.339023,0.129,48.97,55.77,33.04,34.7
"2016-10-15 15:10:00",257624,0.099,223.1,12.96,48.68,30.97063,0,875.347,0,-0.422,3.112,207,12,13.45,3.410587,0.11,49.03,55.77,33.05,34.7
"2016-10-15 15:20:00",257625,0.215,112.3,12.95,48.2,29.62255,0,875.4482,0,-1.314,3.12,197,12,13.45,3.365113,0.114,49.03,55.77,33.05,34.7
"2016-10-15 15:30:00",257626,0.21,143.6,12.75,50.39,27.30368,0,875.4902,0,-0.711,3.116,197,12.05,13.46,2.754996,0.101,48.97,55.77,33.04,34.7
"2016-10-15 15:40:00",257627,0.216,245.7,12.76,48.46,25.62152,0,875.4944,0,-1.553,3.124,198,12.06,13.46,2.588256,0.101,49.03,55.77,33.05,34.7
"2016-10-15 15:50:00",257628,0.114,214.9,12.55,49.61,23.12588,0,875.4944,0,-1.488,3.125,198,12.13,13.44,1.974358,0.085,48.97,55.77,33.04,34.7
"2016-10-15 16:00:00",257629,0.049,209.7,12.2,49.99,21.21201,0,875.4755,0,-1.396,3.126,198,12.15,13.45,1.48173,0.07,48.97,55.77,33.04,34.7
"2016-10-15 16:10:00",257630,0.147,207,12.12,50.55,19.47918,0,875.4797,0,-1.658,3.128,197,12.12,13.46,1.667461,0.086,48.97,55.77,33.04,34.7
"2016-10-15 16:20:00",257631,0.163,219.2,12.12,49.98,17.5073,0,875.4944,0,-1.666,3.128,196,12.14,13.48,1.62209,0.092,48.97,55.77,33.04,34.7
"2016-10-15 16:30:00",257632,0.138,234.6,12.01,51.63,16.06542,0,875.4944,0,-1.699,3.129,195,12.15,13.49,1.519829,0.094,48.92,55.77,33.03,34.7
"2016-10-15 16:40:00",257633,0.043,235.1,12.09,51.5,18.52274,0,875.4944,0,-1.525,3.127,190,12.15,13.51,2.406782,0.13,48.92,55.77,33.03,34.7
"2016-10-15 16:50:00",257634,0.018,240.5,11.96,52.47,14.82808,0,875.4902,0,-1.691,3.13,190,12.16,13.51,2.00129,0.135,48.97,55.72,33.04,34.68
"2016-10-15 17:00:00",257635,0.015,245.6,11.62,55.03,13.35441,0,875.4944,0,-1.735,3.133,198,12.17,13.53,1.978621,0.147,48.97,55.77,33.04,34.7
"2016-10-15 17:10:00",257636,0.061,202.6,10.98,60.88,6.435707,0,875.4944,0,-1.886,3.138,195,12.19,13.5,0.6633575,0.097,48.97,55.77,33.04,34.7
"2016-10-15 17:20:00",257637,0.033,201,10.47,64,0.72733,0,875.5071,0,-1.722,3.139,198,12.2,13.5,0,0,48.92,55.72,33.03,34.68
"2016-10-15 17:30:00",257638,0.046,198.2,10.1,67.2,0,0,875.6799,0,-1.672,3.139,184,12.2,13.47,0,0,48.92,55.77,33.03,34.7
"2016-10-15 17:40:00",257639,0.023,204.5,10.07,66.2,0,0,875.7789,0,-1.583,3.141,197,12.23,13.44,0,0,48.97,55.72,33.04,34.68
"2016-10-15 17:50:00",257640,0.064,180.3,9.31,71.39,0,0,875.9566,0,-1.339,3.141,182,12.25,13.43,0,0,48.92,55.72,33.03,34.68
"2016-10-15 18:00:00",257641,0.214,173.8,8.82,74.82,0,0,876.0226,0,-1.245,3.142,196,12.25,13.45,0,0,48.92,55.72,33.03,34.68
"2016-10-15 18:10:00",257642,0.04,124,9.35,68.63,0,0,876.2209,0,-1.56,3.141,188,12.25,13.46,0.3373844,0,48.92,55.77,33.03,34.7
"2016-10-15 18:20:00",257643,0.099,270.7,9.23,70.26,0,0,876.3314,0,-1.409,3.14,196,12.27,13.46,0.2577769,0,48.92,55.72,33.03,34.68
"2016-10-15 18:30:00",257644,0.263,287.8,9.63,66.47,0,0,876.4971,0,-1.459,3.14,192,12.28,13.46,0.5534621,0,48.92,55.77,33.03,34.7
"2016-10-15 18:40:00",257645,0.08,178.6,8.9,72.24,0,0,876.5978,0,-1.599,3.145,199,12.28,13.46,0.04928087,0,48.92,55.72,33.03,34.68
"2016-10-15 18:50:00",257646,0.01,209.9,8.92,70.86,0,0,876.5998,0,-1.651,3.146,197,12.22,13.47,0.1250976,0,48.92,55.72,33.03,34.68
"2016-10-15 19:00:00",257647,0.006,168.2,8.76,71.76,0,0,876.6108,0,-1.704,3.147,188,12.17,13.47,0.09856175,0,48.92,55.72,33.03,34.68
"2016-10-15 19:10:00",257648,0.16,175.4,8.79,70.45,0,0,876.7332,0,-1.753,3.147,194,12.19,13.48,0.3601294,0,48.92,55.72,33.03,34.68
"2016-10-15 19:20:00",257649,0.093,174.5,8.76,69.68,0,0,876.8533,0,-1.679,3.147,198,12.2,13.49,0.2501952,0,48.92,55.72,33.03,34.68
"2016-10-15 19:30:00",257650,0.137,181.6,8.72,69.54,0,0,876.8533,0,-2.187,3.152,198,12.2,13.48,0.2577769,0,48.92,55.72,33.03,34.68
"2016-10-15 19:40:00",257651,0.175,184.1,8.58,70.86,0,0,876.9249,0,-1.809,3.149,196,12.2,13.49,0.04928087,0,48.92,55.72,33.03,34.68
"2016-10-15 19:50:00",257652,0.068,182.1,8.39,72.69,0,0,877.0871,0,-1.455,3.146,198,12.15,13.5,0.02653586,0,48.92,55.72,33.03,34.68
"2016-10-15 20:00:00",257653,0.364,299.5,8.79,68.78,0,0,877.1061,0,-1.778,3.147,199,12.07,13.5,0.4473187,0,48.92,55.77,33.03,34.7
"2016-10-15 20:10:00",257654,0.035,274.5,8.93,67.49,0,0,877.1061,0,-1.753,3.147,198,12.07,13.5,0.3639203,0,48.92,55.72,33.03,34.68
"2016-10-15 20:20:00",257655,0.128,200,7.905,76.07,0,0,877.1061,0,-1.629,3.155,197,12.1,13.5,0,0,48.92,55.72,33.03,34.68
"2016-10-15 20:30:00",257656,0.267,195.5,7.188,79.55,0,0,877.1061,0,-2.036,3.16,192,12.11,13.5,0,0,48.92,55.72,33.03,34.68
"2016-10-15 20:40:00",257657,0.316,187.1,6.763,81.4,0,0,877.1082,0,-1.811,3.159,196,12.12,13.5,0,0,48.92,55.72,33.03,34.68
"2016-10-15 20:50:00",257658,0.504,195.1,6.629,82.2,0,0,877.1061,0,-1.535,3.157,197,12.13,13.5,0,0,48.86,55.72,33.01,34.68
"2016-10-15 21:00:00",257659,0.177,194.8,6.795,81.4,0,0,877.1061,0,-1.89,3.161,195,12.03,13.5,0.03032669,0,48.92,55.72,33.03,34.68
"2016-10-15 21:10:00",257660,0.295,187.5,6.51,82.7,0,0,877.1082,0,-1.842,3.161,192,12.03,13.5,0,0,48.92,55.72,33.03,34.68
"2016-10-15 21:20:00",257661,0.305,180.9,6.415,83.4,0,0,877.165,0,-1.546,3.159,196,12.03,13.51,0,0,48.86,55.72,33.01,34.68
"2016-10-15 21:30:00",257662,0.311,188.3,6.45,83.8,0,0,877.2957,0,-1.762,3.16,196,12.01,13.54,0.1630243,0,48.92,55.72,33.03,34.68
"2016-10-15 21:40:00",257663,0.352,188.1,6.468,83.9,0,0,877.3588,0,-2.023,3.164,188,12,13.58,0.1706143,0,48.86,55.72,33.01,34.68
"2016-10-15 21:50:00",257664,0.307,187.6,6.293,84.4,0,0,877.3588,0,-2.182,3.165,197,11.98,13.62,0.04170876,0,48.86,55.72,33.01,34.68
"2016-10-15 22:00:00",257665,0.321,187.1,6.297,84.3,0,0,877.3778,0,-1.686,3.16,197,12.01,13.65,0.07583889,0,48.86,55.72,33.01,34.68
"2016-10-15 22:10:00",257666,0.198,192.7,6.211,85,0,0,877.5527,0,-1.998,3.165,197,12.03,13.67,0.1365119,0,48.92,55.72,33.03,34.68
"2016-10-15 22:20:00",257667,0.204,187.8,6.069,86.1,0,0,877.6176,0,-2.449,3.168,198,12.03,13.67,0.06825744,0,48.86,55.72,33.01,34.68
"2016-10-15 22:30:00",257668,0.214,184.2,6.087,85.9,0,0,877.622,0,-1.24,3.158,198,12.02,13.66,0.1820193,0,48.92,55.72,33.03,34.68
"2016-10-15 22:40:00",257669,0.211,179.2,5.977,86.7,0,0,877.6193,0,-1.29,3.158,195,11.95,13.65,0.231318,0,48.92,55.72,33.03,34.68
"2016-10-15 22:50:00",257670,0.249,172.3,5.988,86.3,0,0,877.6279,0,-1.95,3.165,191,11.94,13.64,0.379212,0,48.86,55.72,33.01,34.68
"2016-10-15 23:00:00",257671,0.259,194.2,5.964,86.5,0,0,877.5162,0,-1.218,3.158,195,11.95,13.6,0.2995781,0,48.92,55.72,33.03,34.68
"2016-10-15 23:10:00",257672,0.175,167.5,6.111,85.6,0,0,877.3956,0,-1.242,3.158,195,12,13.56,0.4247185,0,48.86,55.72,33.01,34.68
"2016-10-15 23:20:00",257673,0.399,181.4,5.707,87.3,0,0,877.4237,0,-1.904,3.167,192,11.94,13.52,0.03412917,0,48.92,55.72,33.03,34.68
"2016-10-15 23:30:00",257674,0.262,195.7,5.811,87.2,0,0,877.4288,0,-1.952,3.166,191,11.86,13.52,0.2882019,0,48.92,55.72,33.03,34.68
"2016-10-15 23:40:00",257675,0.339,191.3,5.686,87.1,0,0,877.4258,0,-1.347,3.161,193,11.86,13.51,0.117556,0,48.92,55.66,33.03,34.67
"2016-10-15 23:50:00",257676,0.467,180.6,5.539,88.1,0,0,877.4506,0,-1.046,3.159,191,11.88,13.51,0.1061796,0,48.92,55.72,33.03,34.68
